This demonstration page uses our WeatherBlox Daily Observations layout. Learn more.

Left ArrowRight Arrow

Hourly Observations for October 16, 2021

Temp ( °F °C ) Dew Point ( °F °C ) Humidity (%) Winds ( mph kmh ) Pressure ( in mb ) Visibility ( mi km ) Precip ( " mm )
12:53 am 00:53 Clear 50 10 29 -1.7 44 44 N N/A 30.10 1019 10 16 N/A
1:53 am 01:53 Clear 48 8.9 28 -2.2 46 46 N N/A 30.09 1019 10 16 N/A
2:53 am 02:53 Clear 46 7.8 27 -2.8 47 47 N N/A 30.09 1019 10 16 N/A
3:53 am 03:53 Clear 46 7.8 28 -2.2 50 50 N N/A 30.07 1018 10 16 N/A
4:53 am 04:53 Clear 44 6.7 29 -1.7 55 55 N N/A 30.06 1018 10 16 N/A
5:53 am 05:53 Clear 42 5.6 27 -2.8 55 55 N N/A 30.05 1018 10 16 N/A
6:53 am 06:53 Clear 42 5.6 29 -1.7 60 60 N N/A 30.06 1018 10 16 N/A
7:53 am 07:53 Sunny 44 6.7 30 -1.1 58 58 N N/A 30.06 1018 10 16 N/A
8:53 am 08:53 Sunny 52 11.1 32 undefined 47 47 N N/A 30.06 1018 10 16 N/A
9:53 am 09:53 Sunny 59 15 30 -1.1 33 33 N N/A 30.04 1017 10 16 N/A
10:53 am 10:53 Sunny 66 18.9 30 -1.1 26 26 N N/A 30.03 1017 10 16 N/A
11:53 am 11:53 Sunny 72 22.2 30 -1.1 21 21 N N/A 30.01 1016 10 16 N/A
12:53 pm 12:53 Sunny 75 23.9 29 -1.7 18 18 N N/A 29.97 1015 10 16 N/A
1:53 pm 13:53 Sunny 79 26.1 28 -2.2 15 15 SE 5 7 29.93 1014 10 16 N/A
2:53 pm 14:53 Sunny 81 27.2 28 -2.2 14 14 VRB 3 6 29.89 1012 10 16 N/A
3:53 pm 15:53 Sunny 83 28.3 25 -3.9 12 12 S 7 11 29.88 1012 10 16 N/A
4:53 pm 16:53 Sunny 82 27.8 28 -2.2 14 14 SSE 8 13 29.86 1011 10 16 N/A
5:53 pm 17:53 Sunny 79 26.1 28 -2.2 15 15 SSE 10 17 29.85 1011 10 16 N/A
6:53 pm 18:53 Clear 73 22.8 30 -1.1 20 20 SSE 3 6 29.86 1011 10 16 N/A
7:53 pm 19:53 Clear 67 19.4 31 -0.6 26 26 SSE 6 9 29.87 1012 10 16 N/A
8:53 pm 20:53 Clear 64 17.8 30 -1.1 28 28 N N/A 29.87 1012 10 16 N/A
9:53 pm 21:53 Clear 60 15.6 31 -0.6 33 33 N N/A 29.88 1012 10 16 N/A
10:53 pm 22:53 Clear 57 13.9 32 undefined 39 39 N N/A 29.90 1012 10 16 N/A
11:53 pm 23:53 Clear 54 12.2 31 -0.6 42 42 NNW 3 6 29.88 1012 10 16 N/A

Powered by AerisWeather